Regional Weather Roundup
Issued by NWS

Home | Current Version | Previous Version | Graphics & Text | Print | Product List | Glossary On
Versions: 1 2 3 4 5 6 7 8 9 10 11 12 13 14 15 16 17 18 19 20 21 22 23 24 25 26 27 28 29 30 31 32 33 34 35 36 37 38 39 40 41 42 43 44 45 46 47 48 49 50
000
ASUS43 KDMX 200907
RWRIA

WEATHER ROUNDUP FOR IOWA
NATIONAL WEATHER SERVICE DES MOINES IA
400 AM CDT SAT SEP 20 2014

NOTE: "FAIR" INDICATES FEW OR NO CLOUDS BELOW 12,000 FEET WITH NO
SIGNIFICANT WEATHER AND/OR OBSTRUCTIONS TO VISIBILITY.

* - THESE STATIONS ARE NOT NWS STATIONS...THUS NOT UNDER NWS
QUALITY CONTROL.  THEY ALSO DO NOT REPORT WEATHER SUCH
AS PRECIPITATION OR FOG.

IAZ001>003-012>014-020>022-031>034-043>046-201000-
   NORTHWEST IOWA

CITY           SKY/WX    TMP DP  RH WIND       PRES   REMARKS
CARROLL *      CLOUDY    64  63  94 SW9G18    29.86R
CHEROKEE *     CLOUDY    64  64 100 S3        29.81R
DENISON *      CLOUDY    66  66 100 SE5       29.82F
LE MARS *        N/A     64  63  94 S3        29.81S
ORANGE CITY *  CLEAR     66  63  88 W3        29.80F
SHELDON *      MOCLDY    64  64 100 W5        29.79R
SIOUX CITY     MOCLDY    64  63  96 E5        29.80S
SPENCER        LGT RAIN  66  63  90 W10       29.79S
STORM LAKE *   MOCLDY    64  64 100 SW12G18   29.82R
$$

IAZ055>058-069>071-079>083-090>094-201000-
   SOUTHWEST IOWA

CITY           SKY/WX    TMP DP  RH WIND       PRES   REMARKS
ATLANTIC *     HVY RAIN  68  66  94 N9G16     29.90S
AUDUBON *      HVY RAIN  64  59  82 N8        29.92S
CLARINDA *     PTCLDY    68  68 100 S6        29.88S FOG
COUNCIL BLFS * CLOUDY    70  70 100 CALM      29.86R FOG
CRESTON *      CLEAR     66  66 100 SW9       29.89R FOG
HARLAN  *      CLOUDY    64  64 100 NE5       29.92F
LAMONI         CLEAR     67  65  93 SW12      29.89S
RED OAK *      MOCLDY    70  68  94 N9        29.90R
SHENANDOAH *   CLEAR     70  68  94 S8        29.85F
$$

IAZ047>049-059>061-072>074-084-201000-
   CENTRAL IOWA

CITY           SKY/WX    TMP DP  RH WIND       PRES   REMARKS
AMES           TSTM      68  64  87 W12G28    29.88F FOG
ANKENY *       CLOUDY    70  68  94 S6        29.90S
CHARITON *     CLEAR     68  66  94 SW12G18   29.88R
DES MOINES     CLOUDY    73  67  81 CALM      29.90R
GRINNELL*      CLOUDY    66  64  94 CALM      29.92S FOG
KNOXVILLE *    MOCLDY    68  64  88 NW10      29.91R
MARSHALLTOWN   LGT RAIN  67  65  93 S8        29.87F
PELLA *        CLOUDY    68  66  94 N6        29.93R
PERRY *        HVY RAIN  66  64  94 W7        29.89F
$$

IAZ004>006-015-016-023>025-035-036-201000-
   NORTH CENTRAL IOWA

CITY           SKY/WX    TMP DP  RH WIND       PRES   REMARKS
ALGONA *       CLEAR     64  63  94 S12       29.81S
CLARION *        N/A     63  63 100 S9        29.82F
ESTHERVILLE    CLOUDY    64  63  96 S10       29.78S
FORT DODGE *   CLOUDY    64  63  94 S6        29.84R
MASON CITY     CLOUDY    65  61  87 SW10      29.81F
FOREST CITY *  CLEAR     63  63 100 S9        29.80F
IOWA FALLS *   LGT RAIN  64  61  88 S17       29.83F
$$

IAZ007>011-017>019-026>030-037>042-050>054-066-201000-
   NORTHEAST IOWA

CITY           SKY/WX    TMP DP  RH WIND       PRES   REMARKS
CEDAR RAPIDS   CLOUDY    65  64  97 SW5       29.91R
CHARLES CITY * MOCLDY    64  63  94 SW6G14    29.81F
CLINTON *      CLOUDY    64  57  77 SW10      29.90F
DECORAH *      CLOUDY    63  63 100 S21G28    29.74F
DUBUQUE        CLOUDY    63  60  90 SW8       29.91R
MONTICELLO *   MOCLDY    66  63  88 SW7       29.89F
OELWEIN *      LGT RAIN  66  64  94 SW5       29.87F
WATERLOO       LGT RAIN  65  63  93 SE6       29.85F
$$

IAZ064-065-067-068-078-201000-
   EAST CENTRAL IOWA

CITY           SKY/WX    TMP DP  RH WIND       PRES   REMARKS
DAVENPORT      CLOUDY    64  57  78 S12       29.89F
IOWA CITY      CLOUDY    65  62  90 NW10      29.93R
MT. PLEASANT * MOCLDY    63  61  94 S7        29.91F
MUSCATINE *    PTCLDY    64  61  88 SE6       29.89F
QUAD CITIES    CLOUDY    63  57  81 S8        29.89F
$$

IAZ062-063-075>077-085>089-095>099-201000-
   SOUTHEAST IOWA

CITY           SKY/WX    TMP DP  RH WIND       PRES   REMARKS
BURLINGTON     MOCLDY    63  60  90 S7        29.92R
FAIRFIELD *    CLEAR     64  61  88 S7        29.89F
FORT MADISON * CLEAR     66  63  88 S8        29.93R
KEOKUK *       CLEAR     63  61  94 S8        29.91S
OSKALOOSA *      N/A     64  63  94 SW5       29.89R
CENTERVILLE *  CLEAR     66  66 100 SW8       29.91S
OTTUMWA        CLOUDY    66  63  90 S8        29.88S
WASHINGTON *   CLEAR     64  63  94 SW9       29.89S
$$

ABBREVIATIONS USED IN REMARKS
   TC - TEMPERATURES IN CELSIUS
  WCI - WIND CHILL INDEX
   HX - HEAT INDEX
  VSB - VISIBILITY
$$



USA.gov is the U.S. government's official web portal to all federal, state and local government web resources and services.